User: anonymous   Login
Location: Unspecified
(0.0000°N, 0.0000°E)
Time: 07:44:22
(UTC+00:00)
Language:

FIREBIRD 4 - Orbit

View from above orbital plane
View from above orbital plane
View from above satellite
View from above satellite

Ground track
Ground track

The orbit data is extracted from the following two-line orbital elements,

1 40378U 15003C   19083.15928636  .00003096  00000-0  12549-3 0  9994
2 40378  99.1053  45.8289 0128838  19.1478 341.4529 15.18392677228792
Epoch (UTC): 24 March 2019 03:49:22
Eccentricity: 0.0128838
inclination: 99.1053°
perigee height: 422 km
apogee height: 599 km
right ascension of ascending node: 45.8289°
argument of perigee: 19.1478°
revolutions per day: 15.18392677
mean anomaly at epoch: 341.4529°
orbit number at epoch: 22879

The dashed part of the orbit path shows where the satellite is in the earth's shadow,  

DLR